Location: Tyumen
(57.1527°N, 65.5323°E)
Time: 21:42:05
(UTC+05:00)

ISS - Visible Passes

Search period start: 18 May 2025 00:00
Search period end: 28 May 2025 00:00
Orbit: 416 x 419 km, 51.6° (Epoch: 18 May)

Date Brightness Start Highest point End Pass type
(mag) Time Alt. Az. Time Alt. Az. Time Alt. Az.
18 May -2.1 23:00:20 10° WSW 23:02:46 19° SSW 23:03:54 16° S visible
19 May -2.3 22:12:14 10° WSW 22:14:56 22° SSW 22:17:29 11° SSE visible
20 May -1.5 23:01:51 10° SW 23:03:02 11° SSW 23:03:59 11° SSW visible
21 May -1.7 22:13:13 10° WSW 22:15:14 15° SSW 22:17:15 10° S visible
